Flag for Canada Weather past 2 weeks in Regina, Saskatchewan, Canada

Now
54 °F

Broken clouds.


Feels Like: 49 °F
Forecast: 55 / 73 °F
Wind: 14 mph from Southwest

Location: Regina Weather Station

Current Time: Aug 31, 2015 at 7:41:42 AM

Latest Report: Aug 31, 2015 at 7:00 AM


Visibility: 15 mi

Pressure: 29.70 "Hg (27.72 "Hg at 577m altitude)

Humidity: 94%

Dew point: 52 °F

Location of ReginaLocation

Historic Weather in Regina — Graph

°F

Regina temperature yesterday

Maximum temperature yesterday: 73 °F (at 5:00 PM)
Minimum temperature yesterday: 61 °F (at 7:00 AM)
Average temperature yesterday: 68 °F

Past Weeks' High & Low Weather Summary

 TemperatureHumidityPressure
High86 °F (Aug 29, 3:00 PM)100% (Aug 16, 6:00 AM)30.20 "Hg (Aug 16, 6:00 AM)
Low37 °F (Aug 24, 5:00 AM)27% (Aug 29, 3:00 PM)29.59 "Hg (Aug 30, 4:49 AM)
Average61 °F70%29.93 "Hg
* Reported Aug 16 6:00 AM — Aug 31 6:00 AM, Regina, Weather by CustomWeather, © 2015

Note: Actual official high and low records may vary slightly from our data, if they occured in-between our weather recording intervals... More about our weather records

Advertising

Regina weather history for previous 24 hours

 ConditionsComfort  
Time TempWeatherWind HumidityBarometerVisibility
6:00 AM
Mon, Aug 31
55 °FMostly cloudy.12 mph94%29.69 "Hg15 mi
5:00 AM55 °FMostly cloudy.8 mph94%29.69 "Hg15 mi
4:00 AM57 °FSprinkles. Overcast.15 mph88%29.72 "Hg12 mi
3:00 AM59 °FSprinkles. Overcast.20 mph82%29.73 "Hg10 mi
2:00 AM61 °FSprinkles. Overcast.20 mph83%29.70 "Hg10 mi
1:00 AM70 °FSprinkles. Overcast.16 mph50%29.66 "Hg15 mi
12:00 AM63 °FMostly cloudy.12 mph73%29.66 "Hg15 mi
11:00 PM
Sun, Aug 30
64 °FPartly cloudy.9 mph73%29.67 "Hg15 mi
10:00 PM64 °FOvercast.10 mph73%29.66 "Hg12 mi
9:00 PM63 °FPassing clouds.9 mph83%29.67 "Hg12 mi
8:00 PM64 °FPassing clouds.9 mph78%29.67 "Hg10 mi
7:00 PM68 °FPassing clouds.9 mph73%29.67 "Hg15 mi
6:00 PM73 °FPassing clouds.7 mph65%29.66 "Hg12 mi
5:00 PM73 °FPassing clouds.No wind57%29.67 "Hg12 mi
4:00 PM70 °FScattered clouds.5 mph69%29.68 "Hg12 mi
3:00 PM66 °FBroken clouds.12 mph78%29.65 "Hg12 mi
2:00 PM70 °FOvercast.16 mph53%29.71 "Hg10 mi
1:00 PM68 °FPartly sunny.8 mph60%29.71 "Hg10 mi
12:00 PM66 °FSprinkles. Overcast.8 mph68%29.73 "Hg5 mi
11:00 AM66 °FSprinkles. Overcast.7 mph68%29.70 "Hg3 mi
10:00 AM64 °FSprinkles. Mostly cloudy.15 mph68%29.70 "Hg2 mi
9:00 AM68 °FPartly sunny.7 mph64%29.67 "Hg2 mi
8:00 AM66 °FMore clouds than sun.2 mph64%29.65 "Hg2 mi
7:00 AM61 °FPartly sunny.9 mph72%29.65 "Hg2 mi
Weather by CustomWeather, © 2015

See weather overviewHow to use our weather pages